Hourly Data Report for October 14, 2013

All times are specified in Local Standard Time (LST). Add 1 hour to adjust for Daylight Saving Time where and when it is observed.

ST LEONARD CS
NEW BRUNSWICK

47°09'28.050" N
67°49'55.014" W
245.00 m
810I001
71019
WIY

Download Data

Hourly Data (October 2013)
Hourly Data Report for October 14, 2013
Temp Definition
°C
Dew Point Temp Definition
°C
Rel Hum Definition
%
Wind Dir Definition
10's deg

Wind Spd Definition
km/h
Visibility Definition
km
Stn Press Definition
kPa
Hmdx Definition


Wind Chill Definition


Weather Definition


TIME
00:00 6.1 4.1 87 14 4   99.66     LegendNANA
01:00 6.1 4.4 89 15 6   99.64     LegendNANA
02:00 5.1 3.8 91 14 6   99.60     LegendNANA
03:00 4.1 3.3 95 14 4   99.55     LegendNANA
04:00 2.3 1.8 96 13 4   99.56     LegendNANA
05:00 3.4 3.1 98 16 4   99.56     LegendNANA
06:00 5.5 5.2 98 16 6   99.57     LegendNANA
07:00 5.5 5.3 99 17 6   99.53     LegendNANA
08:00 5.2 5.0 99 17 7   99.54     LegendNANA
09:00 5.8 5.6 99 18 6   99.52     LegendNANA
10:00 6.4 6.2 99 18 7   99.53     LegendNANA
11:00 7.1 6.8 98 19 7   99.50     LegendNANA
12:00 7.9 7.6 98 18 9   99.45     LegendNANA
13:00 8.7 8.3 97 18 7   99.37     LegendNANA
14:00 9.1 8.7 97 21 6   99.34     LegendNANA
15:00 9.6 9.0 96 20 4   99.30     LegendNANA
16:00 9.8 9.4 97 17 6   99.27     LegendNANA
17:00 10.0 9.6 97 18 4   99.26     LegendNANA
18:00 10.0 9.6 97 17 2   99.26     LegendNANA
19:00 10.3 10.0 98   0   99.33     LegendNANA
20:00 10.4 10.1 98 22 4   99.32     LegendNANA
21:00 10.5 10.2 98 23 4   99.34     LegendNANA
22:00 10.7 10.4 98 26 2   99.33     LegendNANA
23:00 10.8 10.6 99 28 2   99.33     LegendNANA

Notes on Data Quality.

Legend

  • E = Estimated
  • M = Missing
  • NA = Not Available
  • ‡ = Partner data that is not subject to review by the National Climate Archives
Date modified: